Regional Weather Roundup
Issued by NWS

Home | Current Version | Previous Version | Graphics & Text | Print | Product List | Glossary On
Versions: 1 2 3 4 5 6 7 8 9 10 11 12 13 14 15 16 17 18 19 20 21 22 23 24 25 26 27
000
ASUS45 KBOU 251207
RWRCO

WEATHER ROUNDUP FOR COLORADO
NATIONAL WEATHER SERVICE DENVER/BOULDER CO
600 AM MDT THU AUG 25 2016

NOTE: "FAIR" INDICATES FEW OR NO CLOUDS BELOW 12000 FEET WITH NO
SIGNIFICANT WEATHER AND/OR OBSTRUCTIONS TO VISIBILITY.

COZ001>005-013-030-031-251300-
...NORTHWEST COLORADO...

CITY           SKY/WX    TMP DP  RH WIND       PRES   REMARKS
CRAIG          FAIR      41  36  82 NW3       30.27R
HAYDEN         FAIR      43  32  65 CALM      30.27R
MEEKER         FAIR      44  38  79 CALM      30.26R
MOUNT WERNER   NOT AVBL
STEAMBOAT SPGS FAIR      39  35  85 SW3       30.28R
WALDEN         FAIR      34  32  93 CALM      30.34R
$$

COZ006>008-011-251300-
...WEST CENTRAL VALLEYS...

CITY           SKY/WX    TMP DP  RH WIND       PRES   REMARKS
GRAND JUNCTION FAIR      59  46  62 E15       30.15R
MONTROSE       FAIR      50  41  71 SE7       30.24S
EAGLE          FAIR      46  36  66 CALM      30.29S
RIFLE          FAIR      49  43  80 SE3       30.21R
DELTA          FAIR      55  44  68 NE5       30.22R
NUCLA          FAIR      50  41  71 E8        30.27S
$$

COZ017>023-064>068-251300-
...SOUTHWEST COLORADO...

CITY           SKY/WX    TMP DP  RH WIND       PRES   REMARKS
DURANGO        FAIR      46  42  86 NE6       30.31R
CORTEZ         FAIR      48  45  89 NW5       30.25R
PAGOSA SPRINGS FAIR      44  44  99 CALM      30.38R
TELLURIDE      FAIR      44  38  78 S6        30.44S
WOLF CREEK PAS FOG       37  37 100 SW12      30.60R VSB<1/4
$$

COZ009-010-012-014-032>034-037-058>063-251300-
...CENTRAL COLORADO...

CITY           SKY/WX    TMP DP  RH WIND       PRES   REMARKS
ASPEN          FAIR      45  35  68 S7        30.32S
BUENA VISTA    FAIR      40  38  89 NW5       30.38S
COPPER MTN     FAIR      41  30  65 S7        30.55S
BERTHOUD PASS  FAIR      34  21  60 NW6       30.58R WCI  29
COTTONWOOD PAS FAIR      43  37  81 CALM      30.45S
GUNNISON       FAIR      43  37  81 N5        30.40S
KREMMLING      FAIR      36  34  93 CALM      30.34S
LEADVILLE      FAIR      37  34  89 CALM      30.44F
SALIDA         MOCLDY    47  43  84 SW8       30.43F
SUNLIGHT       FAIR      43  32  65 NE10G16   30.50S
WILKERSON PASS MOCLDY    37  36  93 W6        30.54S
$$

COZ069>075-251300-
...SAN LUIS VALLEY/SANGRE DE CRISTO MOUNTAINS...

CITY           SKY/WX    TMP DP  RH WIND       PRES   REMARKS
ALAMOSA        FAIR      37  36  96 SW3       30.36R
LA VETA PASS   FAIR      39  37  93 S6        30.46R
SAGUACHE       FAIR      43  41  93 N7        30.38S
$$

COZ035-036-038>040-251300-
...NORTHERN COLORADO FRONT RANGE...

CITY           SKY/WX    TMP DP  RH WIND       PRES   REMARKS
DENVER INTL AP FAIR      48  38  68 S9        30.23R
DMNS CITY PARK   N/A     48  44  85 SW1G8     30.24R
AURORA         PTCLDY    48  41  75 S7        30.24R
FRONT RANGE AP NOT AVBL
ERIE MUNI ARPT FAIR      45  44  98 CALM      30.23R
BOULDER MUN AP FAIR      50  46  87 E3        30.24R
CENTENNIAL     FAIR      48  39  71 S7        30.25R
BROOMFIELD     PTCLDY    50  46  87 NW3       30.25R
FORT COLLINS   FAIR      48  46  93 N7        30.25R
LONGMONT       FAIR      53  49  85 CALM      30.25R
$$

COZ041-046-047-076>085-087-088-251300-
...PIKES PEAK/PALMER DIVIDE AND SOUTHERN FOOTHILLS...

CITY           SKY/WX    TMP DP  RH WIND       PRES   REMARKS
COLO. SPRINGS  FAIR      44  35  70 NE8       30.28F
A. F. ACADEMY  FAIR      40  38  95 N9        30.28S
SCHRIEVER AFB  NOT AVBL
ELLICOTT       FAIR     N/A N/A N/A CALM      30.27
FALCON         FAIR      44  35  69 NW5       30.31R
FORT CARSON    NOT AVBL
LIMON          FAIR      38  32  79 CALM      30.25S
MONUMENT HILL  FAIR      43  36  75 S9        30.31S
TRINIDAD       FAIR      51  47  86 SW13      30.27R
$$

COZ042>045-048>051-090-091-251300-
...NORTHEAST COLORADO...

CITY           SKY/WX    TMP DP  RH WIND       PRES   REMARKS
GREELEY ARPT   FAIR      45  41  87 N3        30.24R
AKRON          FAIR      50  38  63 SE7       30.23R
BURLINGTON     FAIR      52  45  77 CALM      30.22R
WRAY           FAIR      45  39  81 CALM      30.21S
STERLING       FAIR      43  37  81 CALM      30.22R
HOLYOKE        FAIR      46  41  81 N3        30.23S
FORT MORGAN    FAIR      45  38  76 NE6       30.24R
$$

COZ086-089-092>099-251300-
...SOUTHEAST COLORADO...

CITY           SKY/WX    TMP DP  RH WIND       PRES   REMARKS
PUEBLO         FAIR      50  42  74 CALM      30.22S
LA JUNTA       FAIR      57  44  62 NE6       30.21R
LAMAR          CLOUDY    58  52  80 NE6       30.18R
SPRINGFIELD      N/A     57  53  86 NE5       30.22R
$$




USA.gov is the U.S. government's official web portal to all federal, state and local government web resources and services.